Regional Weather Roundup
Issued by NWS

Home | Current Version | Previous Version | Graphics & Text | Print | Product List | Glossary On
Versions: 1 2 3 4 5 6 7 8 9 10 11 12 13 14 15 16 17 18 19 20 21 22 23 24 25 26 27 28 29 30 31 32 33 34 35 36 37 38 39 40 41 42 43 44 45 46 47 48 49 50
000
ASUS43 KDMX 171906
RWRIA

WEATHER ROUNDUP FOR IOWA
NATIONAL WEATHER SERVICE DES MOINES IA
100 PM CST SUN DEC 17 2017

NOTE: "FAIR" INDICATES FEW OR NO CLOUDS BELOW 12,000 FEET WITH NO
SIGNIFICANT WEATHER AND/OR OBSTRUCTIONS TO VISIBILITY.

* - THESE STATIONS ARE NOT NWS STATIONS...THUS NOT UNDER NWS
QUALITY CONTROL.  THEY ALSO DO NOT REPORT WEATHER SUCH
AS PRECIPITATION OR FOG.

IAZ001>003-012>014-020>022-031>034-043>046-172000-
   NORTHWEST IOWA

CITY           SKY/WX    TMP DP  RH WIND       PRES   REMARKS
CARROLL *      CLOUDY    30  27  86 VRB6      29.98F WCI  24
CHEROKEE *     CLOUDY    34  28  80 N3        30.01F
LE MARS *      CLOUDY    32  28  86 N6        30.02F WCI  26
ORANGE CITY *  LGT SNOW  30  30 100 CALM      30.02S
SHELDON *      CLOUDY    30  28  93 NE5       30.00F FOG     WCI  25
SIOUX CITY     CLOUDY    33  27  78 N6        30.01F WCI  28
SPENCER        CLOUDY    31  24  75 NE5       30.01F WCI  26
STORM LAKE *   SUNNY     28  28 100 NE5       29.98F FOG     WCI  23
$$

IAZ055>058-069>071-079>083-090>094-172000-
   SOUTHWEST IOWA

CITY           SKY/WX    TMP DP  RH WIND       PRES   REMARKS
ATLANTIC *     CLOUDY    34  30  86 N7        29.97F WCI  28
AUDUBON *      CLOUDY    36  28  75 N8        29.97F WCI  29
CLARINDA *     CLOUDY    36  36 100 VRB5        N/A  WCI  32
COUNCIL BLFS * MOSUNNY   34  34 100 N7        29.97F WCI  28
CRESTON *      CLOUDY    37  36  93 NW9       29.97F WCI  31
HARLAN  *      CLOUDY    36  28  75 N9G15     30.00F WCI  29
LAMONI         CLOUDY    44  41  89 W9        29.96F
RED OAK *      CLOUDY    34  32  93 NW3       29.99S
SHENANDOAH *   CLOUDY    34  32  93 N5        30.00S WCI  30
$$

IAZ047>049-059>061-072>074-084-172000-
   CENTRAL IOWA

CITY           SKY/WX    TMP DP  RH WIND       PRES   REMARKS
AMES           CLOUDY    36  30  79 CALM      29.98F
ANKENY *       MOSUNNY   36  30  80 N7        29.98F WCI  30
BOONE *        CLOUDY    36  30  80 E6        29.96F WCI  31
CHARITON *     CLOUDY    37  36  93 N6        29.96F WCI  33
DES MOINES     DRIZZLE   36  31  82 N7        29.97F WCI  30
GRINNELL*      LGT RAIN  37  32  82 W5        30.00F WCI  33
KNOXVILLE *    MIX PCPN  37  34  87 NW7       29.95F WCI  32
MARSHALLTOWN   CLOUDY    35  30  82 CALM      30.00F HAZE
NEWTON *       CLOUDY    36  32  87 NW6       29.98F WCI  31
PELLA *        RAIN      37  33  87 N7        29.99F WCI  31
PERRY *          N/A     35  27  71 N5        29.96F WCI  31
$$

IAZ004>006-015-016-023>025-035-036-172000-
   NORTH CENTRAL IOWA

CITY           SKY/WX    TMP DP  RH WIND       PRES   REMARKS
ALGONA *       CLOUDY    34  30  86 E7        30.01F WCI  28
CLARION *      CLOUDY    32  32 100 VRB5      30.01F FOG     WCI  27
ESTHERVILLE    LGT SNOW  27  25  93 VRB3      30.01F FOG
FORT DODGE *   CLOUDY    33  30  88 NE6       29.99F WCI  28
MASON CITY     CLOUDY    28  27  96 CALM      30.02F FOG
FOREST CITY *  CLOUDY    30  30 100 E5        30.01F FOG     WCI  25
WEBSTER CITY * CLOUDY    34  28  80 CALM      29.97F HAZE
IOWA FALLS *   CLOUDY    34  30  86 CALM      30.02F FOG
$$

IAZ007>011-017>019-026>030-037>042-050>054-066-172000-
   NORTHEAST IOWA

CITY           SKY/WX    TMP DP  RH WIND       PRES   REMARKS
CEDAR RAPIDS   LGT RAIN  36  30  79 CALM      29.98F HAZE
CHARLES CITY * CLOUDY    32  32 100 SE5       30.01F FOG     WCI  27
CLINTON *      SUNNY     41  31  67 CALM      29.98F
DECORAH *      CLOUDY    32  30  93 CALM      30.00S FOG
DUBUQUE        CLOUDY    34  30  85 E6        29.98F FOG     WCI  29
MONTICELLO *   CLOUDY    36  32  87 MISG      30.00R HAZE
OELWEIN *      CLOUDY    34  34 100 E6        30.00S FOG     WCI  29
WATERLOO       CLOUDY    34  29  82 SE3       30.02R HAZE
$$

IAZ064-065-067-068-078-172000-
   EAST CENTRAL IOWA

CITY           SKY/WX    TMP DP  RH WIND       PRES   REMARKS
DAVENPORT      SUNNY     41  29  62 SW5       30.00F
IOWA CITY      LGT RAIN  38  32  79 CALM      30.01F
MT. PLEASANT * LGT RAIN  42  39  89 W3        29.98F
MUSCATINE *    MIX PCPN  45  30  57 W8        29.99F
QUAD CITIES    CLOUDY    43  31  62 CALM      29.98F
$$

IAZ062-063-075>077-085>089-095>099-172000-
   SOUTHEAST IOWA

CITY           SKY/WX    TMP DP  RH WIND       PRES   REMARKS
BURLINGTON     LGT RAIN  44  40  85 W7        29.98F
FAIRFIELD *    CLOUDY    41  37  87 CALM      29.97F
FORT MADISON * CLOUDY    45  39  81 SW5       29.99F
KEOKUK *       CLOUDY    48  37  66 CALM      29.98F
OSKALOOSA *    LGT RAIN  39  35  86 NW5       29.98F
OTTUMWA        CLOUDY    40  38  93 NE5       29.97F
WASHINGTON *   LGT RAIN  39  37  93 W6        30.00F WCI  35
$$

ABBREVIATIONS USED IN REMARKS
   TC - TEMPERATURES IN CELSIUS
  WCI - WIND CHILL INDEX
   HX - HEAT INDEX
  VSB - VISIBILITY
$$





USA.gov is the U.S. government's official web portal to all federal, state and local government web resources and services.